Regional Weather Roundup
Issued by NWS New Orleans/Baton Rouge, LA

Home | Current Version | Previous Version | Text Only | Print | Product List | Glossary Off
Versions: 1 2 3 4 5 6 7 8 9 10 11 12 13 14 15 16 17 18 19 20 21 22 23 24 25 26 27 28 29 30 31 32 33 34 35 36 37 38 39 40 41 42 43 44 45 46 47 48 49 50

809
ASUS44 KLIX 261510
RWRLIX
NEW ORLEANS REGIONAL WEATHER ROUNDUP
NATIONAL WEATHER SERVICE NEW ORLEANS LA
900 AM CST THU FEB 26 2015

NOTE: "FAIR" INDICATES FEW OR NO CLOUDS BELOW 12,000 FEET WITH NO
      SIGNIFICANT WEATHER AND/OR OBSTRUCTIONS TO VISIBILITY.
      SKY/WX - SKY CONDITION AND SIGNIFICANT WEATHER.
      TMP - AIR TEMPERATURE.     DP    - DEWPOINT TEMPERATURE.
      RH  - RELATIVE HUMIDITY.   PRES  - PRESSURE.
      HI  - HEAT INDEX.          WCI   - WIND CHILL INDEX.

*  THESE STATIONS ARE NOT NWS OR FAA STATIONS AND ARE NOT UNDER
   NWS QUALITY CONTROL.

LAZ038-040-048-061>063-065>067-069-261600-
SOUTHEAST LOUISIANA

CITY           SKY/WX    TMP DP  RH WIND       PRES   REMARKS
N.O. AUDUBON     N/A     41  37  87 MISG        N/A
N.O. INTL ARPT CLOUDY    39  33  79 N12       30.06R WCI  32
N.O. LAKEFRONT CLOUDY    41  34  76 N10       30.07R
SLIDELL        CLOUDY    38  33  82 N12       30.06R WCI  30
BATON ROUGE    CLOUDY    38  32  79 N7        30.09R WCI  33
BOOTHVILLE     CLOUDY    41  36  82 NW12      30.04R
BELLE CHASSE   CLOUDY    41  33  73 NW9       30.05R
BOGALUSA*        N/A     38  34  84 N9        30.07R WCI  32
GALLIANO*      CLOUDY    42  36  81 NW8       30.07R
NEW ROADS*     CLOUDY    38  33  82 NW12      30.11R WCI  30
GONZALES*      CLOUDY    38  34  85 N7        30.08R WCI  33
HAMMOND*       CLOUDY    39  34  81 N7        30.08R WCI  34
HOUMA*         NOT AVBL
PORT FOURCHON* NOT AVBL

$$

MSZ070-080>082-261600-
SOUTHERN MISSISSIPPI

CITY           SKY/WX    TMP DP  RH WIND       PRES   REMARKS
MCCOMB         CLOUDY    35  31  85 N8        30.07R WCI  29
GULFPORT       CLOUDY    38  33  82 N10       30.03R WCI  31
BILOXI         CLOUDY    38  35  86 N9        30.03R WCI  32
PASCAGOULA     CLOUDY    39  34  82 N10       30.01R WCI  32
STENNIS ARPT*  CLOUDY    37  30  75 N14       30.06R WCI  29

$$

COASTAL OBSERVATIONS
LAKE AND NEARSHORE STATIONS

STATION/POSITION TIME  TEMP    WIND        PRES    WAVE
                       AIR SEA DIR/SP/G            HT/PER
                 (UTC) (F)     (DEG/KT/KT) (MB)    (FT/S)
PASCAGOULA       1500   38      10/ 10/ 14 1015.8
WAVELAND YACHT   1500   38 46  360/ 14/ 17 1017.0
GRAND ISLE       1500          340/  8/ 13   N/A
SOUTHWEST PASS   1500          360/ 15/ 18   N/A
NEW CANAL        1500   40      10/ 12/ 15 1018.0
SHELL BEACH      1500   38 51  330/ 13/ 14 1017.5

OFFSHORE STATIONS

STATION/POSITION TIME  TEMP    WIND        PRES    WAVE
                       AIR SEA DIR/SP/G            HT/PER
                 (UTC) (F)     (DEG/KT/KT) (MB)    (FT/S)
64 S DAUPHIN ISL 1410   47 66   10/ 14/ 17 1015.1    5/ 6

$$




USA.gov is the U.S. government's official web portal to all federal, state and local government web resources and services.